Location: Marshall
(39.8477°N, 87.1868°W)
Time: 05:48:07
(UTC+00:00)

HTV-X1 - Pass Details

Date: 28 May 2026
Orbit: 368 x 378 km, 51.6° (Epoch: 26 May)

Event Time Altitude Azimuth Distance (km) Brightness Sun altitude
Rises 02:35:09 0° 291° (WNW) 2,214 ? -14.3°
Reaches altitude 10° 02:37:44 10° 268° (W) 1,362 ? -14.6°
Maximum altitude 02:39:37 15° 229° (SW) 1,089 ? -14.9°
Enters shadow 02:40:49 13° 202° (SSW) 1,203 ? -15.0°
